| time (UTC) | temp F | wind direction | speed knots | gust knots | rain 1hr in | rain 24hr in | rain mn in | humidity % | barometer mb |
| 20260507100043 | 66 | 340 | 3.5 | 0.0 | 0.00 | 0.00 | 0.00 | 42 | 1017.0 |
| 20260507093046 | 68 | 30 | 3.5 | 0.0 | 0.00 | 0.00 | 0.00 | 39 | 1017.0 |
| 20260507090043 | 68 | 30 | 3.5 | 0.0 | 0.00 | 0.00 | 0.00 | 39 | 1018.0 |
| 20260507083044 | 64 | 300 | 1.7 | 0.0 | 0.00 | 0.00 | 0.00 | 45 | 1018.0 |
| 20260507080045 | 66 | 260 | 3.5 | 0.0 | 0.00 | 0.00 | 0.00 | 42 | 1018.0 |
| 20260507073043 | 66 | 220 | 7.8 | 0.0 | 0.00 | 0.00 | 0.00 | 45 | 1018.0 |
| 20260507070045 | 62 | 240 | 7.8 | 0.0 | 0.00 | 0.00 | 0.00 | 48 | 1018.0 |
| 20260507060043 | 59 | 220 | 6.1 | 0.0 | 0.00 | 0.00 | 0.00 | 58 | 1018.0 |
| 20260507053043 | 57 | 210 | 6.1 | 0.0 | 0.00 | 0.00 | 0.00 | 62 | 1018.0 |
| 20260507043045 | 53 | 220 | 6.1 | 0.0 | 0.00 | 0.00 | 0.00 | 71 | 1017.0 |
| 20260507040044 | 51 | 210 | 1.7 | 0.0 | 0.00 | 0.00 | 0.00 | 76 | 1017.0 |
| 20260507033044 | 51 | 210 | 1.7 | 0.0 | 0.00 | 0.00 | 0.00 | 76 | 1017.0 |
| 20260507030044 | 51 | 230 | 1.7 | 0.0 | 0.00 | 0.00 | 0.00 | 71 | 1016.0 |
| 20260507023045 | 51 | 230 | 1.7 | 0.0 | 0.00 | 0.00 | 0.00 | 71 | 1016.0 |
| 20260507020043 | 50 | 240 | 6.1 | 0.0 | 0.00 | 0.00 | 0.00 | 76 | 1016.0 |
| 20260507013044 | 50 | 240 | 6.1 | 0.0 | 0.00 | 0.00 | 0.00 | 76 | 1016.0 |
| 20260507010043 | 50 | 240 | 3.5 | 0.0 | 0.00 | 0.00 | 0.00 | 81 | 1016.0 |
| 20260507003045 | 50 | 240 | 3.5 | 0.0 | 0.00 | 0.00 | 0.00 | 81 | 1016.0 |
| 20260506233045 | 46 | 240 | 3.5 | 0.0 | 0.00 | 0.00 | 0.00 | 87 | 1015.0 |
| 20260506230044 | 48 | 230 | 1.7 | 0.0 | 0.00 | 0.00 | 0.00 | 81 | 1015.0 |
| 20260506223044 | 48 | 230 | 1.7 | 0.0 | 0.00 | 0.00 | 0.00 | 81 | 1015.0 |
| 20260506220046 | 48 | 0 | 0.0 | 0.0 | 0.00 | 0.00 | 0.00 | 87 | 1015.0 |
| 20260506213045 | 48 | 0 | 0.0 | 0.0 | 0.00 | 0.00 | 0.00 | 87 | 1015.0 |
| 20260506210045 | 53 | 210 | 3.5 | 0.0 | 0.00 | 0.00 | 0.00 | 76 | 1015.0 |
| 20260506203046 | 53 | 210 | 3.5 | 0.0 | 0.00 | 0.00 | 0.00 | 76 | 1015.0 |
| 20260506200047 | 53 | 200 | 3.5 | 0.0 | 0.00 | 0.00 | 0.00 | 76 | 1016.0 |
| 20260506193045 | 53 | 200 | 3.5 | 0.0 | 0.00 | 0.00 | 0.00 | 76 | 1016.0 |
| 20260506190045 | 53 | 270 | 6.1 | 0.0 | 0.00 | 0.00 | 0.00 | 81 | 1015.0 |
| 20260506183045 | 53 | 270 | 6.1 | 0.0 | 0.00 | 0.00 | 0.00 | 81 | 1015.0 |
| 20260506173045 | 57 | 220 | 6.1 | 0.0 | 0.00 | 0.00 | 0.00 | 67 | 1015.0 |
| 20260506170045 | 57 | 220 | 6.1 | 0.0 | 0.00 | 0.00 | 0.00 | 71 | 1014.0 |
| 20260506163046 | 57 | 220 | 6.1 | 0.0 | 0.00 | 0.00 | 0.00 | 71 | 1014.0 |
| 20260506153046 | 60 | 220 | 6.1 | 0.0 | 0.00 | 0.00 | 0.00 | 58 | 1014.0 |
| 20260506150045 | 60 | 210 | 3.5 | 0.0 | 0.00 | 0.00 | 0.00 | 58 | 1014.0 |
| 20260506143045 | 60 | 260 | 3.5 | 0.0 | 0.00 | 0.00 | 0.00 | 63 | 1014.0 |
| 20260506140046 | 60 | 270 | 3.5 | 0.0 | 0.00 | 0.00 | 0.00 | 58 | 1014.0 |
| 20260506133046 | 60 | 230 | 1.7 | 0.0 | 0.00 | 0.00 | 0.00 | 58 | 1014.0 |
| 20260506130045 | 60 | 330 | 1.7 | 0.0 | 0.00 | 0.00 | 0.00 | 58 | 1014.0 |
| 20260506123044 | 60 | 330 | 1.7 | 0.0 | 0.00 | 0.00 | 0.00 | 58 | 1014.0 |
| 20260506120045 | 60 | 340 | 3.5 | 0.0 | 0.00 | 0.00 | 0.00 | 58 | 1014.0 |
| 20260506113045 | 60 | 340 | 6.1 | 0.0 | 0.00 | 0.00 | 0.00 | 58 | 1014.0 |
| 20260506110045 | 60 | 340 | 3.5 | 0.0 | 0.00 | 0.00 | 0.00 | 58 | 1014.0 |
| 20260506103045 | 60 | 350 | 7.8 | 0.0 | 0.00 | 0.00 | 0.00 | 58 | 1014.0 |